Weather History for Charlottetown, P. E. I., Prince Edward Island

Change the Weather History Date:

Thursday, May 1, 2014

  Actual Average Record
Temperature  
Mean Temperature 40 °F -  
Max Temperature 49 °F 57 °F - ()
Min Temperature 30 °F 39 °F - ()
Degree Days  
Heating Degree Days 26    
Moisture  
Dew Point 33 °F    
Average Humidity 79    
Maximum Humidity 100    
Minimum Humidity 47    
Precipitation  
Precipitation 0.55 in 0.13 in - ()
Sea Level Pressure  
Sea Level Pressure 30.01 in    
Wind  
Wind Speed 8 mph ()    
Max Wind Speed 18 mph    
Max Gust Speed 23 mph    
Visibility 10.5 miles    
Events Rain , Thunderstorm    
T = Trace of Precipitation, MM = Missing Value Source: Averaged Metar Reports

Daily Weather History Graph

Daily Weather History Graph

Search for Another Location

Airport:

Trip Planner

Search our weather history database for the weather conditions in past years. The results will help you decide how hot, cold, wet, or windy it might be!

Date:

Astronomy

May. 01, 2014 Rise Set
Actual Time 5:58 AM ADT 8:21 PM ADT
Civil Twilight 5:25 AM ADT 8:54 PM ADT
Nautical Twilight 4:44 AM ADT 9:36 PM ADT
Astronomical Twilight 3:57 AM ADT 10:23 PM ADT
Moon 7:39 AM ADT (5/1) 10:54 PM ADT (5/1)
Length of Visible Light 15h 29m
Length of Day
14h 22m
Waxing Crescent, 6% of the Moon is Illuminated
May 1
Waxing Crescent
May 7
First Quarter
May 14
Full
May 21
Last Quarter
May 28
New

Hourly Weather History & Observations

Time (ADT) Temp. Windchill Dew Point Humidity Pressure Visibility Wind Dir Wind Speed Gust Speed Precip Events Conditions
12:00 AM 33.8 °F 29.6 °F 23.0 °F 65% 30.30 in 15.0 mi SSW 4.6 mph - N/A   Scattered Clouds
1:00 AM 33.8 °F 27.7 °F 24.8 °F 70% 30.28 in 15.0 mi SSW 6.9 mph - N/A   Scattered Clouds
2:00 AM 32.0 °F 24.8 °F 28.4 °F 87% 30.26 in 15.0 mi SSW 8.1 mph - N/A   Scattered Clouds
3:00 AM 32 °F - 29 °F 84% 30.25 in 15 mi SSW 8.1 mph - -   Clear
3:00 AM 32.0 °F 25.6 °F 28.4 °F 87% 30.25 in 15.0 mi SSW 6.9 mph - N/A   Mostly Cloudy
4:00 AM 33.8 °F 27.7 °F 28.4 °F 81% 30.22 in 15.0 mi WSW 6.9 mph - N/A   Mostly Cloudy
5:00 AM 30.2 °F 22.6 °F 28.4 °F 93% 30.19 in 15.0 mi SW 8.1 mph - N/A   Partly Cloudy
6:00 AM 33.8 °F 25.8 °F 26.6 °F 75% 30.19 in 15.0 mi WSW 10.4 mph - N/A   Mostly Cloudy
7:00 AM 35.6 °F 28.6 °F 28.4 °F 75% 30.17 in 15.0 mi SW 9.2 mph - N/A   Mostly Cloudy
8:00 AM 39.2 °F 33.0 °F 30.2 °F 70% 30.16 in 15.0 mi WSW 9.2 mph - N/A   Overcast
9:00 AM 42 °F - 31 °F 54% 30.15 in 15 mi SW 5.8 mph - -   Overcast
9:00 AM 42.8 °F 39.3 °F 30.2 °F 61% 30.15 in 15.0 mi SW 5.8 mph - N/A   Overcast
10:00 AM 42.8 °F 38.0 °F 30.2 °F 61% 30.15 in 15.0 mi SW 8.1 mph - N/A   Overcast
11:00 AM 42.8 °F 38.6 °F 33.8 °F 70% 30.13 in 15.0 mi SSW 6.9 mph - N/A   Overcast
12:00 PM 44.6 °F 40.2 °F 35.6 °F 71% 30.10 in 15.0 mi South 8.1 mph - N/A   Overcast
1:00 PM 44.6 °F 39.2 °F 33.8 °F 66% 30.08 in 15.0 mi South 10.4 mph - N/A   Overcast
2:00 PM 46.4 °F 42.4 °F 33.8 °F 62% 30.05 in 15.0 mi South 8.1 mph - N/A   Overcast
3:00 PM 47 °F - 33 °F 47% 30.02 in 15 mi SSE 6.9 mph - -   Overcast
3:00 PM 48.2 °F - 33.8 °F 58% 30.01 in 15.0 mi SSE 6.9 mph - N/A   Overcast
3:43 PM 50.0 °F - 33.8 °F 54% 29.99 in 15.0 mi SSE 12.7 mph - N/A Rain Light Rain
4:00 PM 48.2 °F - 33.8 °F 58% 29.98 in 15.0 mi South 13.8 mph - N/A Rain Light Rain
5:00 PM 44.6 °F 38.8 °F 37.4 °F 76% 29.95 in 12.0 mi South 11.5 mph - N/A Rain Light Rain
6:00 PM 42.8 °F 35.8 °F 37.4 °F 81% 29.90 in 10.0 mi SSE 13.8 mph - N/A Rain Light Rain
8:00 PM 39.2 °F 29.8 °F 35.6 °F 87% 29.84 in 8.0 mi SSE 18.4 mph - N/A Rain Light Rain
8:27 PM 39.2 °F 31.2 °F 37.4 °F 93% 29.83 in 2.5 mi SE 13.8 mph - N/A Rain Light Rain
8:53 PM 39.2 °F 30.5 °F 37.4 °F 93% 29.80 in 2.5 mi SSE 16.1 mph 23.0 mph N/A Rain Light Rain
9:00 PM 38 °F - 37 °F 97% 29.80 in 2 mi SSE 15.0 mph - - Rain Light Rain
9:00 PM 39.2 °F 31.2 °F 37.4 °F 93% 29.80 in 2.5 mi SE 13.8 mph 23.0 mph N/A Rain Light Rain
9:16 PM 39.2 °F 31.6 °F 37.4 °F 93% 29.79 in 3.0 mi SSE 12.7 mph 19.6 mph N/A Rain , Thunderstorm Light Thunderstorms and Rain
9:29 PM 39.2 °F 33.0 °F 37.4 °F 93% 29.81 in 2.5 mi SSE 9.2 mph - N/A Rain , Thunderstorm Thunderstorms and Rain
9:34 PM 39.2 °F 32.5 °F 37.4 °F 93% 29.83 in 2.5 mi South 10.4 mph - N/A Rain , Thunderstorm Heavy Thunderstorms and Rain
10:00 PM 39.2 °F 31.6 °F 37.4 °F 93% 29.80 in 2.5 mi SSE 12.7 mph - N/A Rain , Thunderstorm Heavy Thunderstorms and Rain
10:05 PM 39.2 °F 32.0 °F 37.4 °F 93% 29.79 in 2.5 mi SSE 11.5 mph - N/A Rain , Thunderstorm Thunderstorms and Rain
10:21 PM 39.2 °F 31.2 °F 39.2 °F 100% 29.77 in 2.5 mi SE 13.8 mph 20.7 mph N/A Rain Heavy Rain
10:39 PM 39.2 °F 31.2 °F 37.4 °F 93% 29.74 in 2.5 mi ESE 13.8 mph - N/A Rain Rain
11:00 PM 39.2 °F 31.6 °F 39.2 °F 100% 29.73 in 5.0 mi ESE 12.7 mph 18.4 mph N/A Rain Light Rain